Flag for U.S.A. Weather past 2 weeks in Lancaster, California, U.S.A.

Now
35 °F

Clear.


Feels Like: 32 °F
Forecast: 41 / 58 °F
Wind: 3 mph from Southwest

Location: Lancaster / Fox Field

Current Time: Jan 26, 2015 at 7:14:39 AM

Latest Report: Jan 26, 2015 at 5:56 AM


Visibility: 10 mi

Pressure: 30.13 "Hg

Humidity: 85%

Dew point: 31 °F

Location of LancasterLocation

Historic Weather in Lancaster — Graph

°F

Lancaster temperature yesterday

Maximum temperature yesterday: 69 °F (at 1:56 PM)
Minimum temperature yesterday: 30 °F (at 4:56 AM)
Average temperature yesterday: 48 °F

Past Weeks' High & Low Weather Summary

 TemperatureHumidityPressure
High69 °F (Jan 19, 2:56 PM)100% (Jan 11, 5:56 AM)30.44 "Hg (Jan 11, 5:56 AM)
Low26 °F (Jan 23, 6:56 AM)16% (Jan 23, 2:56 PM)29.98 "Hg (Jan 20, 4:56 PM)
Average45 °F67%30.23 "Hg
* Reported Jan 11 5:56 AM — Jan 26 5:56 AM, Lancaster, Weather by CustomWeather, © 2014

Note: Actual official high and low records may vary slightly from our data, if they occured in-between our weather recording intervals... More about our weather records

Advertising

Lancaster weather history for previous 24 hours

 ConditionsComfort  
Time TempWeatherWind HumidityBarometerVisibility
5:56 AM
Jan 26
35 °FClear.3 mph85%30.13 "Hg10 mi
4:56 AM36 °FClear.3 mph82%30.12 "Hg10 mi
3:56 AM36 °FClear.6 mph82%30.11 "Hg10 mi
2:56 AM39 °FClear.3 mph76%30.13 "Hg10 mi
1:56 AM40 °FClear.5 mph77%30.13 "Hg10 mi
12:56 AM43 °FClear.3 mph65%30.14 "Hg10 mi
11:56 PM
Jan 25
43 °FClear.8 mph71%30.15 "Hg10 mi
10:56 PM42 °FClear.6 mph73%30.15 "Hg10 mi
9:56 PM45 °FClear.9 mph65%30.15 "Hg10 mi
8:56 PM48 °FClear.7 mph59%30.15 "Hg10 mi
7:56 PM50 °FClear.9 mph57%30.15 "Hg10 mi
6:56 PM53 °FClear.No wind51%30.15 "Hg10 mi
5:56 PM59 °FClear.No wind38%30.12 "Hg10 mi
4:56 PM62 °FSunny.8 mph35%30.11 "Hg10 mi
3:56 PM67 °FSunny.9 mph29%30.10 "Hg10 mi
2:56 PM69 °FSunny.14 mph23%30.10 "Hg10 mi
1:56 PM69 °FSunny.15 mph23%30.11 "Hg10 mi
12:56 PM68 °FSunny.15 mph24%30.14 "Hg10 mi
11:56 AM65 °FSunny.10 mph23%30.19 "Hg10 mi
10:56 AM61 °FSunny.10 mph29%30.24 "Hg10 mi
9:56 AM53 °FSunny.3 mph39%30.27 "Hg10 mi
8:56 AM45 °FSunny.3 mph53%30.27 "Hg10 mi
7:56 AM35 °FSunny.5 mph72%30.28 "Hg10 mi
Weather by CustomWeather, © 2014

See weather overviewHow to use our weather pages